SAS104 LFBO-LFPG

Flight info

Callsign SAS104
Flight time 0h 57m
Altitude 34000
Route FISTO DCT POI/N0513F300 DCT PEPAX UT182 KEPER
Aircraft B77W/H-SDE1E2E3FGHIJ2J3J4J5M1RWXY/LB1D1

Departure

Time 2026-05-08 14:35
Airport Toulouse-Blagnac Airport (LFBO)

Arrival

Time 2026-05-08 15:32
Airport Charles de Gaulle International Airport (LFPG)
Time Latitude Longitude Altitude Speed Heading
2026-05-08 14:16 43.63127 1.37055 499 ft 0 kts 30°
2026-05-08 14:25 43.63122 1.37051 499 ft 3 kts 30°
2026-05-08 14:26 43.63103 1.37036 499 ft 3 kts 30°
2026-05-08 14:26 43.63085 1.37021 499 ft 3 kts 30°
2026-05-08 14:26 43.63066 1.37008 499 ft 3 kts
2026-05-08 14:26 43.63045 1.37012 499 ft 3 kts 322°
2026-05-08 14:27 43.63035 1.37026 499 ft 0 kts 295°
2026-05-08 14:30 43.63038 1.37016 499 ft 6 kts 295°
2026-05-08 14:31 43.63088 1.36907 499 ft 16 kts 314°
2026-05-08 14:31 43.63111 1.36804 500 ft 9 kts 242°
2026-05-08 14:31 43.63115 1.36726 500 ft 9 kts 309°
2026-05-08 14:32 43.63308 1.36519 500 ft 26 kts 323°
2026-05-08 14:32 43.63453 1.36369 500 ft 26 kts 323°
2026-05-08 14:32 43.63597 1.36219 500 ft 26 kts 323°
2026-05-08 14:32 43.63741 1.36071 500 ft 24 kts 323°
2026-05-08 14:33 43.63813 1.35992 500 ft 10 kts 308°
2026-05-08 14:33 43.63802 1.35907 500 ft 10 kts 232°
2026-05-08 14:33 43.63758 1.35833 501 ft 10 kts 228°
2026-05-08 14:33 43.63696 1.35810 501 ft 10 kts 159°
2026-05-08 14:34 43.63629 1.35876 502 ft 19 kts 143°
2026-05-08 14:34 43.63390 1.36125 502 ft 78 kts 143°
2026-05-08 14:34 43.62765 1.36775 502 ft 145 kts 143°
2026-05-08 14:34 43.61846 1.37744 693 ft 177 kts 141°
2026-05-08 14:35 43.60907 1.38718 1610 ft 167 kts 140°
2026-05-08 14:35 43.59945 1.39706 2094 ft 179 kts 140°
2026-05-08 14:35 43.58948 1.40766 2634 ft 182 kts 139°
2026-05-08 14:35 43.57873 1.41764 3171 ft 191 kts 146°
2026-05-08 14:36 43.56743 1.42759 3703 ft 196 kts 143°
2026-05-08 14:36 43.55600 1.43925 3941 ft 220 kts 142°
2026-05-08 14:36 43.54297 1.45259 4229 ft 238 kts 147°
2026-05-08 14:36 43.52683 1.45984 4722 ft 257 kts 174°
2026-05-08 14:37 43.50877 1.45690 5354 ft 268 kts 197°
2026-05-08 14:37 43.49237 1.44458 6192 ft 271 kts 219°
2026-05-08 14:37 43.48045 1.42482 7044 ft 272 kts 241°
2026-05-08 14:37 43.47487 1.40033 7844 ft 275 kts 263°
2026-05-08 14:38 43.47673 1.37412 8670 ft 279 kts 285°
2026-05-08 14:38 43.48608 1.35044 9440 ft 287 kts 308°
2026-05-08 14:38 43.50206 1.33347 10129 ft 298 kts 333°
2026-05-08 14:38 43.52267 1.32624 10531 ft 319 kts 353°
2026-05-08 14:39 43.54575 1.32428 10705 ft 345 kts 356°
2026-05-08 14:39 43.57059 1.32245 10895 ft 370 kts 355°
2026-05-08 14:39 43.59701 1.32005 11348 ft 386 kts 355°
2026-05-08 14:39 43.62397 1.31705 12241 ft 391 kts 354°
2026-05-08 14:40 43.65132 1.31366 13208 ft 395 kts 354°
2026-05-08 14:40 43.67894 1.31011 14098 ft 402 kts 354°
2026-05-08 14:40 43.70686 1.30677 15044 ft 405 kts 355°
2026-05-08 14:40 43.73529 1.30374 15776 ft 413 kts 355°
2026-05-08 14:41 43.76428 1.30077 16560 ft 421 kts 355°
2026-05-08 14:41 43.79375 1.29778 17329 ft 428 kts 355°
2026-05-08 14:41 43.82368 1.29473 18139 ft 434 kts 355°
2026-05-08 14:41 43.85405 1.29158 18823 ft 440 kts 355°
2026-05-08 14:42 43.88476 1.28838 19543 ft 445 kts 355°
2026-05-08 14:42 43.91573 1.28512 20284 ft 449 kts 355°
2026-05-08 14:42 43.94703 1.28181 20999 ft 453 kts 355°
2026-05-08 14:42 43.97859 1.27847 21701 ft 458 kts 355°
2026-05-08 14:43 44.01052 1.27508 22379 ft 463 kts 355°
2026-05-08 14:43 44.04276 1.27166 23091 ft 466 kts 355°
2026-05-08 14:43 44.07518 1.26822 23782 ft 469 kts 355°
2026-05-08 14:43 44.10786 1.26475 24319 ft 473 kts 355°
2026-05-08 14:44 44.14042 1.26129 24837 ft 478 kts 355°
2026-05-08 14:44 44.17378 1.25774 25328 ft 482 kts 355°
2026-05-08 14:44 44.20736 1.25417 25839 ft 487 kts 355°
2026-05-08 14:44 44.24126 1.25055 26362 ft 490 kts 355°
2026-05-08 14:45 44.27536 1.24690 26874 ft 494 kts 355°
2026-05-08 14:45 44.30979 1.24322 27342 ft 498 kts 355°
2026-05-08 14:45 44.33278 1.24076 27643 ft 501 kts 355°
2026-05-08 14:45 44.36812 1.23697 28098 ft 504 kts 354°
2026-05-08 14:46 44.40328 1.23320 28533 ft 508 kts 354°
2026-05-08 14:46 44.43860 1.22941 28993 ft 510 kts 354°
2026-05-08 14:46 44.47389 1.22418 29456 ft 510 kts 348°
2026-05-08 14:46 44.50842 1.21242 29766 ft 512 kts 342°
2026-05-08 14:47 44.54258 1.19751 30065 ft 515 kts 340°
2026-05-08 14:47 44.57668 1.18154 30346 ft 518 kts 339°
2026-05-08 14:47 44.61016 1.16581 30662 ft 519 kts 340°
2026-05-08 14:47 44.64447 1.15011 31012 ft 519 kts 340°
2026-05-08 14:48 44.67896 1.13478 31290 ft 521 kts 341°
2026-05-08 14:48 44.71368 1.11973 31526 ft 523 kts 341°
2026-05-08 14:48 44.74850 1.10490 31904 ft 521 kts 341°
2026-05-08 14:48 44.78314 1.09025 32363 ft 518 kts 341°
2026-05-08 14:49 44.81760 1.07567 32774 ft 517 kts 341°
2026-05-08 14:49 44.85212 1.06103 33100 ft 516 kts 341°
2026-05-08 14:49 44.88647 1.04639 33439 ft 516 kts 341°
2026-05-08 14:49 44.92033 1.03192 33795 ft 514 kts 341°
2026-05-08 14:50 44.95514 1.01699 33902 ft 517 kts 341°
2026-05-08 14:50 44.98959 1.00219 33930 ft 517 kts 341°
2026-05-08 14:50 45.05749 0.97300 33912 ft 510 kts 340°
2026-05-08 14:51 45.12535 0.94375 33925 ft 510 kts 340°
2026-05-08 14:51 45.19362 0.91422 33926 ft 517 kts 340°
2026-05-08 14:52 45.29742 0.86920 33918 ft 522 kts 340°
2026-05-08 14:53 45.36691 0.83898 33918 ft 523 kts 340°
2026-05-08 14:53 45.43652 0.80864 33921 ft 523 kts 340°
2026-05-08 14:54 45.50605 0.77826 33924 ft 522 kts 340°
2026-05-08 14:54 45.57557 0.74777 33927 ft 522 kts 340°
2026-05-08 14:55 45.64454 0.71748 33923 ft 521 kts 340°
2026-05-08 14:55 45.71374 0.68698 33938 ft 519 kts 340°
2026-05-08 14:56 45.78272 0.65652 33941 ft 518 kts 340°
2026-05-08 14:56 45.85161 0.62601 33935 ft 517 kts 340°
2026-05-08 14:57 45.92030 0.59551 33935 ft 516 kts 340°
2026-05-08 14:57 45.98889 0.56497 33945 ft 516 kts 340°
2026-05-08 14:58 46.05749 0.53436 33930 ft 515 kts 340°
2026-05-08 14:58 46.12549 0.50392 33942 ft 514 kts 340°
2026-05-08 14:59 46.19370 0.47331 33946 ft 513 kts 340°
2026-05-08 14:59 46.29587 0.42734 33946 ft 511 kts 340°
2026-05-08 15:00 46.36376 0.39667 33950 ft 511 kts 340°
2026-05-08 15:00 46.43177 0.36584 33941 ft 512 kts 340°
2026-05-08 15:01 46.49982 0.33498 33942 ft 513 kts 340°
2026-05-08 15:01 46.56938 0.31073 33937 ft 518 kts 352°
2026-05-08 15:02 46.64141 0.31401 33940 ft 522 kts
2026-05-08 15:02 46.71236 0.33670 33942 ft 522 kts 11°
2026-05-08 15:03 46.78309 0.36010 33941 ft 521 kts 11°
2026-05-08 15:03 46.85402 0.38239 33956 ft 521 kts 10°
2026-05-08 15:04 46.92446 0.40415 33948 ft 521 kts 10°
2026-05-08 15:04 46.99527 0.42619 33967 ft 519 kts
2026-05-08 15:05 47.06617 0.44317 33956 ft 513 kts
2026-05-08 15:05 47.13715 0.44076 33959 ft 507 kts 349°
2026-05-08 15:06 47.20657 0.42369 33984 ft 505 kts 347°
2026-05-08 15:06 47.27572 0.40568 33967 ft 505 kts 347°
2026-05-08 15:07 47.34460 0.38853 33971 ft 506 kts 348°
2026-05-08 15:07 47.41424 0.37148 33986 ft 507 kts 348°
2026-05-08 15:08 47.47262 0.35711 33976 ft 507 kts 348°
2026-05-08 15:08 47.55236 0.33738 33300 ft 500 kts 348°
2026-05-08 15:09 47.58669 0.32882 32486 ft 498 kts 348°
2026-05-08 15:09 47.62093 0.32028 31542 ft 499 kts 348°
2026-05-08 15:09 47.65501 0.31179 30833 ft 494 kts 348°
2026-05-08 15:09 47.68868 0.30339 30186 ft 488 kts 348°
2026-05-08 15:10 47.72204 0.29506 29471 ft 483 kts 348°
2026-05-08 15:10 47.75495 0.28683 28806 ft 477 kts 348°
2026-05-08 15:10 47.78770 0.28289 28175 ft 472 kts
2026-05-08 15:10 47.81958 0.29281 27751 ft 468 kts 18°
2026-05-08 15:11 47.84844 0.31476 27383 ft 464 kts 33°
2026-05-08 15:11 47.87411 0.34323 27080 ft 468 kts 35°
2026-05-08 15:11 47.90041 0.37228 26696 ft 473 kts 34°
2026-05-08 15:11 47.92716 0.40072 26329 ft 472 kts 33°
2026-05-08 15:12 47.95393 0.42869 25965 ft 468 kts 33°
2026-05-08 15:12 47.98053 0.45647 25603 ft 465 kts 33°
2026-05-08 15:12 48.00692 0.48413 25249 ft 461 kts 33°
2026-05-08 15:12 48.03307 0.51161 24902 ft 457 kts 33°
2026-05-08 15:13 48.05896 0.53887 24540 ft 454 kts 33°
2026-05-08 15:13 48.08470 0.56600 24201 ft 450 kts 33°
2026-05-08 15:13 48.11025 0.59298 23862 ft 447 kts 33°
2026-05-08 15:13 48.13556 0.61975 23514 ft 444 kts 33°
2026-05-08 15:14 48.16075 0.64640 23114 ft 441 kts 33°
2026-05-08 15:14 48.18569 0.67282 22738 ft 438 kts 33°
2026-05-08 15:14 48.21052 0.69916 22399 ft 435 kts 33°
2026-05-08 15:14 48.23513 0.72531 22068 ft 432 kts 33°
2026-05-08 15:15 48.25962 0.75136 21739 ft 430 kts 33°
2026-05-08 15:15 48.28370 0.77698 21412 ft 429 kts 33°
2026-05-08 15:15 48.30796 0.80283 21090 ft 428 kts 33°
2026-05-08 15:15 48.33210 0.82875 20768 ft 424 kts 35°
2026-05-08 15:16 48.35318 0.85986 20406 ft 428 kts 53°
2026-05-08 15:16 48.36708 0.89937 20117 ft 430 kts 64°
2026-05-08 15:16 48.38008 0.94028 19786 ft 435 kts 62°
2026-05-08 15:16 48.39387 0.98081 19446 ft 435 kts 61°
2026-05-08 15:17 48.40790 1.02111 19107 ft 432 kts 61°
2026-05-08 15:17 48.42183 1.06114 18728 ft 432 kts 62°
2026-05-08 15:17 48.43568 1.10122 18287 ft 430 kts 62°
2026-05-08 15:17 48.44936 1.14099 17826 ft 426 kts 62°
2026-05-08 15:18 48.46293 1.18054 17388 ft 420 kts 62°
2026-05-08 15:18 48.47623 1.21939 16973 ft 414 kts 62°
2026-05-08 15:18 48.48936 1.25776 16578 ft 409 kts 62°
2026-05-08 15:18 48.50231 1.29563 16176 ft 404 kts 62°
2026-05-08 15:19 48.51514 1.33318 15789 ft 400 kts 62°
2026-05-08 15:19 48.52790 1.37041 15409 ft 400 kts 62°
2026-05-08 15:19 48.54072 1.40773 15019 ft 401 kts 62°
2026-05-08 15:19 48.55355 1.44508 14644 ft 401 kts 62°
2026-05-08 15:20 48.56702 1.48123 14241 ft 395 kts 55°
2026-05-08 15:20 48.58377 1.51340 13998 ft 385 kts 48°
2026-05-08 15:20 48.59581 1.53381 13756 ft 384 kts 46°
2026-05-08 15:20 48.61358 1.56290 13329 ft 383 kts 46°
2026-05-08 15:21 48.63175 1.59236 12897 ft 382 kts 46°
2026-05-08 15:21 48.64987 1.62163 12543 ft 379 kts 46°
2026-05-08 15:21 48.66783 1.65060 12090 ft 376 kts 46°
2026-05-08 15:21 48.68569 1.67938 11570 ft 375 kts 46°
2026-05-08 15:22 48.70325 1.70766 11152 ft 371 kts 46°
2026-05-08 15:22 48.72111 1.73644 10643 ft 370 kts 46°
2026-05-08 15:22 48.73827 1.76408 10250 ft 366 kts 46°
2026-05-08 15:22 48.75239 1.78684 9881 ft 364 kts 46°
2026-05-08 15:23 48.76992 1.81511 9365 ft 361 kts 46°
2026-05-08 15:23 48.78705 1.84276 8917 ft 358 kts 46°
2026-05-08 15:23 48.80406 1.87024 8456 ft 356 kts 46°
2026-05-08 15:23 48.82086 1.89736 8076 ft 351 kts 46°
2026-05-08 15:24 48.83756 1.92435 7571 ft 350 kts 46°
2026-05-08 15:24 48.85411 1.95111 7240 ft 344 kts 46°
2026-05-08 15:24 48.87035 1.97737 6826 ft 342 kts 47°
2026-05-08 15:24 48.88659 2.00367 6406 ft 339 kts 47°
2026-05-08 15:25 48.90225 2.02902 6039 ft 317 kts 47°
2026-05-08 15:25 48.91656 2.05219 5876 ft 292 kts 47°
2026-05-08 15:25 48.92987 2.07377 5597 ft 269 kts 47°
2026-05-08 15:25 48.94233 2.09396 5206 ft 255 kts 47°
2026-05-08 15:26 48.95442 2.11357 4848 ft 255 kts 48°
2026-05-08 15:26 48.96646 2.13314 4616 ft 251 kts 47°
2026-05-08 15:26 48.97832 2.15240 4383 ft 247 kts 47°
2026-05-08 15:26 48.98998 2.17135 4127 ft 244 kts 47°
2026-05-08 15:27 49.00087 2.19011 4048 ft 228 kts 58°
2026-05-08 15:27 49.00579 2.21192 4006 ft 214 kts 79°
2026-05-08 15:27 49.00835 2.23392 4060 ft 209 kts 81°
2026-05-08 15:27 49.01015 2.25581 3836 ft 206 kts 84°
2026-05-08 15:28 49.01140 2.27733 3546 ft 201 kts 85°
2026-05-08 15:28 49.01215 2.29125 3374 ft 196 kts 84°
2026-05-08 15:28 49.01346 2.31576 3074 ft 188 kts 84°
2026-05-08 15:28 49.01454 2.33578 2812 ft 191 kts 84°
2026-05-08 15:29 49.01561 2.35574 2550 ft 187 kts 85°
2026-05-08 15:29 49.01631 2.36873 2420 ft 178 kts 84°
2026-05-08 15:29 49.01726 2.38669 2157 ft 162 kts 84°
2026-05-08 15:29 49.01815 2.40295 1949 ft 148 kts 83°
2026-05-08 15:30 49.01899 2.41860 1792 ft 152 kts 83°
2026-05-08 15:30 49.01986 2.43485 1578 ft 153 kts 84°
2026-05-08 15:30 49.02074 2.45101 1347 ft 150 kts 85°
2026-05-08 15:30 49.02157 2.46657 1153 ft 149 kts 85°
2026-05-08 15:31 49.02249 2.48250 999 ft 154 kts 82°
2026-05-08 15:31 49.02341 2.49862 739 ft 151 kts 84°
2026-05-08 15:31 49.02421 2.51420 543 ft 146 kts 84°
2026-05-08 15:31 49.02502 2.52984 378 ft 145 kts 82°
2026-05-08 15:32 49.02576 2.54339 364 ft 105 kts 85°
2026-05-08 15:32 49.02596 2.55167 365 ft 52 kts 100°
2026-05-08 15:32 49.02530 2.55441 366 ft 15 kts 118°
2026-05-08 15:32 49.02477 2.55571 366 ft 14 kts 136°
2026-05-08 15:33 49.02416 2.55610 364 ft 0 kts 172°
2026-05-08 15:33 49.02414 2.55610 363 ft 2 kts 172°
2026-05-08 15:34 49.02375 2.55617 359 ft 10 kts 173°
2026-05-08 15:34 49.02294 2.55628 364 ft 12 kts 176°
2026-05-08 15:34 49.02210 2.55637 365 ft 12 kts 175°
2026-05-08 15:34 49.02143 2.55645 362 ft 7 kts 175°
2026-05-08 15:35 49.02094 2.55638 363 ft 7 kts 205°
2026-05-08 15:35 49.02068 2.55575 366 ft 7 kts 256°
2026-05-08 15:35 49.02063 2.55498 365 ft 7 kts 266°
2026-05-08 15:35 49.02060 2.55420 362 ft 7 kts 266°
2026-05-08 15:36 49.02056 2.55342 359 ft 8 kts 266°
2026-05-08 15:36 49.02049 2.55212 359 ft 22 kts 264°
2026-05-08 15:36 49.02031 2.54965 367 ft 24 kts 258°
2026-05-08 15:36 49.01906 2.54847 364 ft 24 kts 171°
2026-05-08 15:37 49.01742 2.54866 359 ft 24 kts 175°
2026-05-08 15:37 49.01578 2.54886 367 ft 24 kts 174°
2026-05-08 15:37 49.01414 2.54912 360 ft 24 kts 171°
2026-05-08 15:37 49.01264 2.54963 362 ft 17 kts 185°
2026-05-08 15:38 49.01226 2.54815 367 ft 16 kts 264°
2026-05-08 15:38 49.01273 2.54694 365 ft 16 kts
2026-05-08 15:38 49.01380 2.54738 365 ft 16 kts
2026-05-08 15:38 49.01490 2.54741 362 ft 16 kts 353°
2026-05-08 15:39 49.01593 2.54697 366 ft 11 kts 329°
2026-05-08 15:39 49.01604 2.54677 365 ft 4 kts 303°
2026-05-08 15:39 49.01593 2.54631 364 ft 5 kts 228°
2026-05-08 15:39 49.01572 2.54581 366 ft 6 kts 239°
2026-05-08 15:40 49.01568 2.54572 364 ft 0 kts 239°